Theta_e
300 301 302 302 301 302 304 304 303 302 302 302 301 302 302 302 301 301 300 300 302 303
298 297 299 298 299 301 303 304 302 301 300 300 300 300 300 299 297 298 298 299 300 302
295 295 296 297 297 297 298 300 300 299 299 299 298 298 298 297 296 296 296 297 297 297
293 294 294 294 295 295 296 297 298 299 299 299 298 298 296 296 296 295 295 296 297 298
293 293 292 293 293 295 294 296 296 297 298 298 298 297 295 296 297 295 295 296 296 297
292 293 292 293 293 294 295 295 295 296 295 296 295 295 295 295 296 295 295 295 295 295
292 293 292 293 293 294 295 294 295 295 296 296 295 295 295 294 294 293 294 295 295 295
293 293 293 292 292 293 293 295 295 295 294 294 294 296 293 293 292 292 293 294 293 294
292 292 292 291 292 292 293 293 293 293 293 293 295 294 293 291 291 292 292 291 292 292
291 290 291 291 291 290 290 291 291 291 291 291 292 293 293 292 290 288 289 288 288 289
290 290 290 290 289 289 290 289 289 289 289 290 290 291 291 290 289 289 288 289 290 289
290 290 290 290 290 290 290 289 290 291 290 290 289 289 290 289 289 288 289 289 289 290
289 289 290 290 290 290 290 290 290 289 290 290 289 290 290 290 289 286 287 288 289 289
288 288 289 289 289 289 289 289 289 288 289 289 289 288 289 289 287 286 286 286 287 288
Wind_Speed
5 3 1 1 2 3 2 3 3 5 5 5 5 4 3 2 3 4 4 6 5 3
3 2 2 4 3 3 4 4 6 6 7 7 6 6 5 4 5 4 4 6 5 4
4 4 3 3 6 6 6 5 7 7 7 7 7 7 6 5 6 6 5 5 6 5
6 7 6 5 6 6 6 7 7 7 7 8 9 8 6 8 8 8 7 6 7 8
5 5 5 6 6 6 6 6 7 7 7 8 9 9 8 11 10 7 8 9 6 9
5 5 5 5 4 5 6 6 6 5 6 7 7 8 7 7 9 8 8 7 7 10
5 4 4 5 6 6 6 6 6 6 6 6 7 6 6 6 6 6 6 8 9 9
6 6 6 6 6 6 6 5 5 8 6 6 6 5 6 5 4 4 7 12 9 7
5 5 5 6 6 6 7 7 8 8 8 8 6 10 11 7 6 8 7 10 12 9
4 4 4 7 8 9 9 7 8 8 6 8 8 11 11 12 7 6 7 9 11 11
4 4 6 6 7 8 8 8 8 7 7 8 8 13 15 14 9 8 9 10 11 13
5 6 7 8 9 8 9 11 9 9 9 9 9 13 16 14 9 9 11 10 10 12
7 8 9 9 9 7 8 9 7 9 9 10 11 13 16 15 10 14 10 10 11 15
7 9 8 8 8 7 8 9 9 9 9 8 9 10 15 16 10 9 10 10 10 8
Wind_Direction
59 52 31 265 273 269 268 265 250 264 244 249 258 257 248 236 248 248 260 270 289 308
95 67 343 314 264 269 257 256 257 256 270 270 269 259 247 238 257 240 254 248 232 227
29 11 339 338 332 321 315 303 304 295 289 287 279 273 255 249 247 239 248 252 263 268
11 5 355 339 323 320 311 309 293 284 286 288 286 280 268 260 264 241 246 248 245 254
16 1 4 356 352 349 342 329 326 319 306 302 298 287 275 275 269 243 249 248 249 255
41 34 29 18 357 351 348 335 327 332 318 306 296 290 289 273 272 252 244 249 246 254
43 29 16 353 347 334 313 304 317 308 295 301 307 308 304 296 282 296 295 281 259 253
31 12 357 340 316 297 303 311 297 307 306 301 302 304 326 329 338 356 328 302 281 266
18 354 325 308 307 324 325 319 319 323 314 315 309 301 301 314 309 296 291 280 298 298
348 315 318 343 333 328 322 322 326 313 305 314 309 306 303 295 294 286 285 287 288 289
313 321 334 330 327 327 322 326 313 297 298 303 297 298 301 294 284 269 259 263 272 276
320 333 341 342 335 329 324 322 309 308 305 304 308 314 314 314 306 289 285 277 269 270
345 344 343 328 318 308 307 301 302 301 301 302 311 316 312 317 311 306 303 293 284 280
1 348 329 318 309 304 307 306 305 302 302 297 300 306 303 307 308 304 307 305 300 287